Location: Newark
(46.2031°N, 3.4731°E)
Time: 13:12:26
(UTC+00:00)

Envisat - Pass Details

Date: 22 September 2019
Orbit: 764 x 766 km, 98.1° (Epoch: 19 October)

Event Time Altitude Azimuth Distance (km) Brightness Sun altitude
Rises 18:08:27 0° 176° (S) 3,219 6.1 -5.0°
Reaches altitude 10° 18:10:47 10° 180° (S) 2,298 5.4 -5.4°
Maximum altitude 18:15:47 59° 259° (W) 887 3.8 -6.2°
Drops below altitude 10° 18:20:49 10° 339° (NNW) 2,314 5.9 -7.1°
Sets 18:23:10 0° 344° (NNW) 3,244 6.6 -7.5°
